Simultaneous Nadir Overpasses (SNOs) Predictions

Prediction of SNOs near equator between NOAA-19 and NPP Satellite Orbit:

Table of predicted SNOs near equator for the next 14.0 days since TLE Epoch: 2/26/2012
Index Date (NOAA-19) Time (NOAA-19) NOAA-19 Lat,Lon Date (NPP) Time (NPP) NPP Lat,Lon Distance(km) Time Diff (sec)
1 03/04/2012 07:07:37 29.94, 90.96 03/04/2012 07:04:19 29.75, 89.96 98.70 198
2 03/04/2012 07:58:42 -29.98,-101.82 03/04/2012 07:55:01 -29.77,-102.72 89.76 221
3 03/04/2012 08:49:43 29.97, 65.43 03/04/2012 08:45:50 29.81, 64.57 84.77 233
4 03/04/2012 09:40:47 -29.95,-127.34 03/04/2012 09:36:31 -29.78,-128.10 75.88 256
5 03/04/2012 10:31:48 29.95, 39.91 03/04/2012 10:27:20 29.82, 39.19 70.92 268
6 03/04/2012 11:22:53 -29.98,-152.87 03/04/2012 11:18:02 -29.84,-153.49 61.94 291
7 03/04/2012 12:13:54 29.98, 14.38 03/04/2012 12:08:51 29.88, 13.80 57.02 303
8 03/04/2012 13:04:58 -29.95,-178.38 03/04/2012 12:59:32 -29.85,-178.87 48.07 326
9 03/04/2012 13:55:59 29.95, -11.14 03/04/2012 13:50:21 29.89, -11.58 43.21 338
10 03/04/2012 14:47:04 -29.98, 156.09 03/04/2012 14:41:03 -29.91, 155.74 34.15 361
11 03/04/2012 15:38:05 29.98, -36.67 03/04/2012 15:31:51 29.89, -36.95 29.34 374
12 03/04/2012 16:29:09 -29.96, 130.57 03/04/2012 16:22:33 -29.92, 130.37 20.29 396
13 03/04/2012 17:20:10 29.95, -62.18 03/04/2012 17:13:21 29.90, -62.33 15.50 409
14 03/04/2012 18:11:15 -29.99, 105.04 03/04/2012 18:04:04 -29.98, 104.97 6.52 431
15 03/04/2012 19:02:16 29.98, -87.71 03/04/2012 18:54:52 29.96, -87.72 2.27 444
16 03/04/2012 19:47:36 -9.97, 84.52 03/04/2012 19:39:52 -9.97, 84.53 0.98 464
17 03/04/2012 20:35:35 -0.77,-105.79 03/04/2012 20:27:38 -0.79,-105.75 4.52 477
18 03/04/2012 21:26:33 1.02, 61.50 03/04/2012 21:18:15 1.02, 61.63 13.41 498
19 03/04/2012 22:17:53 -0.04,-131.48 03/04/2012 22:09:21 -0.02,-131.30 20.00 512
20 03/04/2012 23:09:14 -1.05, 35.51 03/04/2012 23:00:21 -1.11, 35.78 29.95 533
21 03/05/2012 00:00:33 1.98,-157.46 03/04/2012 23:51:26 2.04,-157.14 36.59 547
22 03/05/2012 00:51:54 -3.06, 9.53 03/05/2012 00:42:26 -3.17, 9.94 46.68 568
23 03/05/2012 01:43:14 4.06, 176.55 03/05/2012 01:33:32 4.17, 177.01 53.19 582
24 03/05/2012 02:34:32 -4.96, -16.42 03/05/2012 02:24:32 -5.29, -15.91 67.50 600




NCC Satellite Simultaneous Nadir Overpasses (SNOs) Prediction Service
